Mackinac Island, MI

4:48 AM EDT on June 26, 2017 (GMT -0400)
Mackinac Island

Weather History for KMCD - November, 2013

Change the Weather History Date:

Sunday, November 17, 2013

  Actual Average Record
Temperature  
Mean Temperature 50 °F -  
Max Temperature 57 °F 39 °F 57 °F (2013)
Min Temperature 43 °F 30 °F 15 °F (1979)
Degree Days  
Heating Degree Days 15    
Moisture  
Dew Point 52 °F    
Average Humidity 95    
Maximum Humidity 99    
Minimum Humidity 91    
Precipitation  
Precipitation 2.08 in - - ()
Sea Level Pressure  
Sea Level Pressure 29.27 in    
Wind  
Wind Speed 14 mph (South)    
Max Wind Speed 30 mph    
Max Gust Speed 40 mph    
Visibility 8 miles    
Events Rain    
Averages and records for this station are not official NWS values.
T = Trace of Precipitation, MM = Missing Value Source: NWS Daily Summary

Daily Weather History Graph

Daily Weather History Graph

Search for Another Location

Airport or City:

Trip Planner

Search our weather history database for the weather conditions in past years. The results will help you decide how hot, cold, wet, or windy it might be!

Date:

Astronomy

Nov. 17, 2013 Rise Set
Actual Time 7:41 AM EST 5:04 PM EST
Civil Twilight 7:09 AM EST 5:37 PM EST
Nautical Twilight 6:32 AM EST 6:13 PM EST
Astronomical Twilight 5:57 AM EST 6:49 PM EST
Moon 5:21 PM EST (11/17) 7:34 AM EST (11/17)
Length of Visible Light 10h 28m
Length of Day
9h 23m
Full, 100% of the Moon is Illuminated
Nov 17
Full
Nov 25
Last Quarter
Dec 2
New
Dec 9
First Quarter
Dec 17
Full

Hourly Weather History & Observations

Time (EST) Temp. Windchill Dew Point Humidity Pressure Visibility Wind Dir Wind Speed Gust Speed Precip Events Conditions
12:15 AM 52.2 °F - 50.2 °F 93% 29.51 in 7.0 mi South 18.4 mph 28.8 mph N/A Rain Light Rain
12:35 AM 52.0 °F - 50.4 °F 94% 29.51 in 7.0 mi South 17.3 mph 27.6 mph 0.02 in Rain Light Rain
12:55 AM 52.5 °F - 50.7 °F 94% 29.51 in 10.0 mi South 16.1 mph 25.3 mph 0.02 in   Overcast
1:16 AM 52.7 °F - 50.4 °F 92% 29.51 in 10.0 mi South 16.1 mph 25.3 mph N/A   Overcast
1:35 AM 53.1 °F - 50.9 °F 92% 29.50 in 10.0 mi South 17.3 mph 27.6 mph N/A   Overcast
1:55 AM 53.1 °F - 51.1 °F 93% 29.50 in 7.0 mi South 19.6 mph 29.9 mph 0.03 in Rain Rain
2:16 AM 53.6 °F - 51.1 °F 91% 29.50 in 10.0 mi South 15.0 mph 27.6 mph 0.01 in   Overcast
2:35 AM 53.8 °F - 51.3 °F 91% 29.49 in 10.0 mi South 15.0 mph 27.6 mph 0.01 in   Overcast
2:55 AM 54.1 °F - 51.8 °F 92% 29.49 in 10.0 mi South 11.5 mph 24.2 mph 0.01 in   Overcast
3:16 AM 54.0 °F - 51.6 °F 92% 29.49 in 10.0 mi South 15.0 mph 21.9 mph N/A   Overcast
3:35 AM 54.1 °F - 51.8 °F 92% 29.49 in 10.0 mi South 12.7 mph 19.6 mph N/A   Overcast
3:55 AM 54.9 °F - 52.2 °F 91% 29.49 in 10.0 mi South 10.4 mph 20.7 mph N/A   Overcast
4:16 AM 55.2 °F - 52.7 °F 91% 29.49 in 10.0 mi South 10.4 mph 18.4 mph N/A   Overcast
4:35 AM 54.9 °F - 52.7 °F 92% 29.49 in 10.0 mi South 10.4 mph 18.4 mph N/A   Overcast
4:55 AM 54.9 °F - 52.7 °F 92% 29.50 in 10.0 mi South 9.2 mph 19.6 mph N/A   Overcast
5:15 AM 54.1 °F - 52.2 °F 93% 29.49 in 10.0 mi SSE 9.2 mph 17.3 mph N/A   Overcast
5:35 AM 54.5 °F - 52.7 °F 94% 29.49 in 10.0 mi SSE 10.4 mph 18.4 mph N/A   Overcast
5:55 AM 54.9 °F - 53.1 °F 94% 29.50 in 10.0 mi SSE 11.5 mph 17.3 mph N/A   Overcast
6:15 AM 54.7 °F - 53.1 °F 94% 29.49 in 10.0 mi South 11.5 mph 18.4 mph N/A   Overcast
6:35 AM 54.5 °F - 52.9 °F 94% 29.48 in 10.0 mi SSE 10.4 mph 19.6 mph N/A   Overcast
6:55 AM 54.3 °F - 52.9 °F 95% 29.47 in 10.0 mi SSE 11.5 mph 18.4 mph N/A   Overcast
7:15 AM 54.5 °F - 52.9 °F 94% 29.47 in 10.0 mi SSE 12.7 mph 19.6 mph N/A   Scattered Clouds
7:35 AM 54.1 °F - 52.9 °F 95% 29.47 in 10.0 mi SSE 12.7 mph 21.9 mph N/A   Scattered Clouds
7:55 AM 53.8 °F - 52.7 °F 96% 29.47 in 10.0 mi SSE 11.5 mph 20.7 mph N/A   Overcast
8:15 AM 54.5 °F - 53.6 °F 97% 29.47 in 10.0 mi SSE 10.4 mph 18.4 mph N/A   Overcast
8:35 AM 54.7 °F - 53.6 °F 96% 29.45 in 10.0 mi SSE 10.4 mph 16.1 mph N/A   Mostly Cloudy
8:55 AM 55.4 °F - 54.3 °F 96% 29.46 in 10.0 mi SSE 10.4 mph 18.4 mph N/A   Mostly Cloudy
9:15 AM 55.6 °F - 54.5 °F 96% 29.45 in 10.0 mi SSE 11.5 mph 16.1 mph N/A   Overcast
9:36 AM 55.6 °F - 54.5 °F 96% 29.44 in 10.0 mi SSE 10.4 mph 17.3 mph N/A   Overcast
9:55 AM 55.9 °F - 54.7 °F 96% 29.44 in 10.0 mi SSE 8.1 mph 17.3 mph N/A   Overcast
10:15 AM 56.3 °F - 54.9 °F 95% 29.42 in 10.0 mi SSE 9.2 mph - N/A   Overcast
10:35 AM 56.5 °F - 55.0 °F 95% 29.42 in 10.0 mi SSE 9.2 mph 16.1 mph N/A   Overcast
10:55 AM 56.7 °F - 55.4 °F 96% 29.40 in 10.0 mi SSE 5.8 mph 17.3 mph N/A   Overcast
11:15 AM 56.7 °F - 55.4 °F 96% 29.38 in 7.0 mi SSE 11.5 mph 17.3 mph N/A   Overcast
11:35 AM 57.2 °F - 55.8 °F 95% 29.37 in 7.0 mi SE 9.2 mph 17.3 mph N/A   Overcast
11:55 AM 57.2 °F - 55.9 °F 96% 29.35 in 5.0 mi SSE 9.2 mph - N/A Rain Light Rain
12:15 PM 57.0 °F - 56.3 °F 97% 29.30 in 1.8 mi SE 8.1 mph - 0.10 in Rain Rain
12:35 PM 57.2 °F - 56.3 °F 97% 29.27 in 4.0 mi SE 6.9 mph - 0.12 in Rain Light Rain
12:55 PM 57.0 °F - 56.3 °F 97% 29.23 in 5.0 mi SE 11.5 mph 18.4 mph 0.13 in Rain Light Rain
1:15 PM 57.2 °F - 56.5 °F 97% 29.22 in 7.0 mi SE 18.4 mph 28.8 mph 0.01 in Rain Light Rain
1:35 PM 57.2 °F - 55.8 °F 95% 29.18 in 10.0 mi SE 16.1 mph 26.5 mph 0.02 in   Overcast
1:55 PM 57.6 °F - 55.9 °F 94% 29.14 in 10.0 mi SE 19.6 mph 31.1 mph 0.02 in Rain Light Rain
2:15 PM 57.7 °F - 56.5 °F 96% 29.17 in 10.0 mi SW 20.7 mph 31.1 mph 0.02 in Rain Light Rain
2:35 PM 56.7 °F - 55.9 °F 97% 29.14 in 1.2 mi South 8.1 mph - 0.53 in Rain Heavy Rain
2:55 PM 55.4 °F - 54.9 °F 98% 29.13 in 3.0 mi WSW 8.1 mph - 0.68 in Rain Heavy Rain
3:15 PM 54.5 °F - 54.1 °F 99% 29.13 in 1.8 mi NW 13.8 mph 20.7 mph 0.03 in Rain Rain
3:35 PM 54.1 °F - 53.8 °F 99% 29.12 in 3.0 mi NNW 8.1 mph - 0.09 in Rain Rain
3:55 PM 54.1 °F - 54.0 °F 99% 29.10 in 5.0 mi NE 6.9 mph - 0.13 in Rain Rain
4:15 PM 54.0 °F - 53.6 °F 99% 29.11 in 2.5 mi South 4.6 mph - 0.05 in Rain Rain
4:35 PM 54.5 °F - 53.1 °F 95% 29.10 in 5.0 mi SE 6.9 mph - 0.12 in Rain Rain
4:55 PM 53.8 °F - 52.9 °F 97% 29.10 in 5.0 mi SSE 6.9 mph - 0.21 in Rain Heavy Rain
5:15 PM 53.8 °F - 53.1 °F 97% 29.07 in 5.0 mi ESE 5.8 mph - 0.07 in Rain Heavy Rain
5:35 PM 54.0 °F - 53.6 °F 99% 29.05 in 4.0 mi SE 6.9 mph - 0.20 in Rain Heavy Rain
5:55 PM 53.6 °F - 53.4 °F 99% 29.04 in 5.0 mi SE 8.1 mph - 0.27 in Rain Rain
6:15 PM 53.8 °F - 53.6 °F 99% 29.03 in 5.0 mi SE 6.9 mph - 0.05 in Rain Rain
6:35 PM 53.8 °F - 53.6 °F 99% 29.00 in 10.0 mi SE 10.4 mph 16.1 mph 0.08 in Rain Light Rain
6:55 PM 53.4 °F - 52.7 °F 97% 28.99 in 10.0 mi SE 6.9 mph - 0.09 in Rain Light Rain
7:15 PM 53.6 °F - 53.2 °F 99% 28.98 in 7.0 mi SSE 12.7 mph 20.7 mph 0.03 in Rain Rain
7:35 PM 53.2 °F - 52.7 °F 98% 28.95 in 5.0 mi SSE 9.2 mph 17.3 mph 0.11 in Rain Heavy Rain
7:56 PM 53.1 °F - 52.5 °F 98% 28.94 in 7.0 mi South 11.5 mph 18.4 mph 0.18 in Rain Rain
8:15 PM 50.7 °F - 50.2 °F 98% 28.93 in 5.0 mi SW 10.4 mph - 0.04 in Rain Rain
8:35 PM 49.1 °F - 48.7 °F 99% 28.93 in 2.5 mi NW 19.6 mph 31.1 mph 0.06 in Rain Light Rain
8:56 PM 48.2 °F - 47.3 °F 97% 28.95 in 7.0 mi NW 20.7 mph 33.4 mph 0.07 in Rain Rain
9:15 PM 47.3 °F - 46.2 °F 96% 28.96 in 5.0 mi NW 29.9 mph 40.3 mph 0.02 in Rain Light Rain
9:35 PM 45.9 °F 38.0 °F 44.6 °F 95% 28.99 in 5.0 mi WNW 20.7 mph 38.0 mph 0.06 in Rain Light Rain
9:56 PM 45.1 °F 36.0 °F 43.9 °F 95% 29.01 in 5.0 mi WNW 26.5 mph 34.5 mph 0.10 in Rain Light Rain
10:15 PM 44.6 °F 35.5 °F 43.0 °F 94% 29.04 in 4.0 mi WNW 25.3 mph 38.0 mph 0.03 in Rain Light Rain
10:35 PM 44.6 °F 35.7 °F 42.8 °F 93% 29.05 in 4.0 mi WNW 24.2 mph 33.4 mph 0.08 in Rain Light Rain
10:56 PM 44.1 °F 36.2 °F 42.8 °F 95% 29.07 in 7.0 mi West 18.4 mph 33.4 mph 0.11 in Rain Light Rain
11:15 PM 44.1 °F 35.7 °F 42.8 °F 95% 29.08 in 7.0 mi West 20.7 mph 27.6 mph 0.01 in Rain Light Rain
11:35 PM 43.7 °F 35.7 °F 42.4 °F 95% 29.10 in 10.0 mi West 18.4 mph 31.1 mph 0.02 in Rain Light Rain
11:55 PM 43.7 °F 34.3 °F 41.9 °F 93% 29.12 in 10.0 mi West 25.3 mph 38.0 mph 0.03 in Rain Rain